| time (UTC) | temp F | wind direction | speed MPH | gust MPH | rain 1hr in | rain 24hr in | rain mn in | humidity % | barometer mb |
| 20260510094602 | 39 | 0 | 0.0 | 0.0 | 0.00 | 0.00 | 0.00 | 46 | 1022.4 |
| 20260510093110 | 39 | 0 | 0.0 | 1.0 | 0.00 | 0.00 | 0.00 | 46 | 1022.3 |
| 20260510091550 | 40 | 0 | 0.0 | 0.0 | 0.00 | 0.00 | 0.00 | 45 | 1022.3 |
| 20260510090049 | 40 | 0 | 0.0 | 0.0 | 0.00 | 0.00 | 0.00 | 46 | 1022.3 |
| 20260510084550 | 40 | 0 | 0.0 | 0.0 | 0.00 | 0.00 | 0.00 | 46 | 1022.3 |
| 20260510083058 | 40 | 0 | 0.0 | 0.0 | 0.00 | 0.00 | 0.00 | 46 | 1022.4 |
| 20260510081549 | 40 | 0 | 0.0 | 0.0 | 0.00 | 0.00 | 0.00 | 45 | 1022.5 |
| 20260510080056 | 41 | 0 | 0.0 | 0.0 | 0.00 | 0.00 | 0.00 | 45 | 1022.8 |
| 20260510074549 | 41 | 0 | 0.0 | 0.0 | 0.00 | 0.00 | 0.00 | 44 | 1022.7 |
| 20260510073055 | 41 | 0 | 0.0 | 0.0 | 0.00 | 0.00 | 0.00 | 41 | 1022.7 |
| 20260510071549 | 42 | 0 | 0.0 | 0.0 | 0.00 | 0.00 | 0.00 | 40 | 1022.7 |
| 20260510070050 | 42 | 0 | 0.0 | 1.0 | 0.00 | 0.00 | 0.00 | 39 | 1022.7 |
| 20260510064549 | 42 | 0 | 0.0 | 0.0 | 0.00 | 0.00 | 0.00 | 39 | 1022.9 |
| 20260510063045 | 43 | 0 | 0.0 | 0.0 | 0.00 | 0.00 | 0.00 | 37 | 1022.8 |
| 20260510061544 | 43 | 72 | 0.0 | 0.0 | 0.00 | 0.00 | 0.00 | 36 | 1022.9 |
| 20260510060049 | 44 | 0 | 0.0 | 0.0 | 0.00 | 0.00 | 0.00 | 36 | 1022.9 |
| 20260510054547 | 44 | 0 | 0.0 | 0.0 | 0.00 | 0.00 | 0.00 | 37 | 1022.8 |
| 20260510053049 | 45 | 0 | 0.0 | 0.0 | 0.00 | 0.00 | 0.00 | 37 | 1022.9 |
| 20260510051556 | 46 | 0 | 0.0 | 0.0 | 0.00 | 0.00 | 0.00 | 37 | 1022.9 |
| 20260510050046 | 46 | 0 | 0.0 | 0.0 | 0.00 | 0.00 | 0.00 | 36 | 1022.9 |
| 20260510044601 | 47 | 0 | 0.0 | 0.0 | 0.00 | 0.00 | 0.00 | 35 | 1022.8 |
| 20260510043048 | 47 | 0 | 0.0 | 0.0 | 0.00 | 0.00 | 0.00 | 35 | 1022.5 |
| 20260510041548 | 48 | 0 | 0.0 | 0.0 | 0.00 | 0.00 | 0.00 | 33 | 1022.4 |
| 20260510040057 | 49 | 0 | 0.0 | 1.0 | 0.00 | 0.00 | 0.00 | 32 | 1022.3 |
| 20260510034545 | 50 | 0 | 0.0 | 0.0 | 0.00 | 0.00 | 0.00 | 31 | 1022.3 |
| 20260510033059 | 51 | 0 | 0.0 | 1.0 | 0.00 | 0.00 | 0.00 | 32 | 1022.0 |
| 20260510031545 | 53 | 0 | 0.0 | 0.0 | 0.00 | 0.00 | 0.00 | 32 | 1021.9 |
| 20260510030101 | 54 | 0 | 0.0 | 0.0 | 0.00 | 0.00 | 0.00 | 31 | 1021.7 |
| 20260510024554 | 56 | 0 | 0.0 | 1.0 | 0.00 | 0.00 | 0.00 | 29 | 1021.6 |
| 20260510023050 | 59 | 0 | 0.0 | 2.0 | 0.00 | 0.00 | 0.00 | 27 | 1021.7 |
| 20260510021546 | 62 | 0 | 0.0 | 1.0 | 0.00 | 0.00 | 0.00 | 24 | 1021.7 |
| 20260510020046 | 63 | 0 | 0.0 | 1.0 | 0.00 | 0.00 | 0.00 | 21 | 1021.6 |
| 20260510014556 | 65 | 0 | 0.0 | 1.0 | 0.00 | 0.00 | 0.00 | 19 | 1021.6 |
| 20260510013049 | 66 | 148 | 0.0 | 3.0 | 0.00 | 0.00 | 0.00 | 22 | 1021.5 |
| 20260510011548 | 68 | 0 | 0.0 | 2.0 | 0.00 | 0.00 | 0.00 | 19 | 1021.4 |
| 20260510010047 | 70 | 129 | 0.0 | 3.0 | 0.00 | 0.00 | 0.00 | 16 | 1021.4 |
| 20260510004550 | 72 | 0 | 0.0 | 3.0 | 0.00 | 0.00 | 0.00 | 15 | 1021.4 |
| 20260510003047 | 70 | 0 | 0.0 | 3.0 | 0.00 | 0.00 | 0.00 | 15 | 1021.3 |
| 20260510001550 | 72 | 139 | 0.0 | 4.0 | 0.00 | 0.00 | 0.00 | 12 | 1021.3 |
| 20260510000051 | 71 | 331 | 0.0 | 4.0 | 0.00 | 0.00 | 0.00 | 16 | 1021.1 |
| 20260509234549 | 71 | 158 | 1.0 | 6.0 | 0.00 | 0.00 | 0.00 | 15 | 1021.3 |
| 20260509233051 | 72 | 0 | 1.0 | 3.0 | 0.00 | 0.00 | 0.00 | 15 | 1021.2 |
| 20260509231553 | 73 | 346 | 0.0 | 4.0 | 0.00 | 0.00 | 0.00 | 15 | 1021.4 |
| 20260509230058 | 73 | 326 | 1.0 | 6.0 | 0.00 | 0.00 | 0.00 | 14 | 1021.4 |
| 20260509224555 | 74 | 154 | 1.0 | 5.0 | 0.00 | 0.00 | 0.00 | 14 | 1021.5 |
| 20260509223051 | 75 | 176 | 0.0 | 5.0 | 0.00 | 0.00 | 0.00 | 13 | 1021.5 |
| 20260509221551 | 75 | 158 | 1.0 | 5.0 | 0.00 | 0.00 | 0.00 | 13 | 1021.7 |
| 20260509220055 | 76 | 142 | 0.0 | 4.0 | 0.00 | 0.00 | 0.00 | 14 | 1021.9 |
| 20260509214546 | 77 | 195 | 1.0 | 4.0 | 0.00 | 0.00 | 0.00 | 12 | 1021.9 |
| 20260509213057 | 77 | 106 | 1.0 | 6.0 | 0.00 | 0.00 | 0.00 | 11 | 1022.0 |
| 20260509211552 | 78 | 220 | 0.0 | 5.0 | 0.00 | 0.00 | 0.00 | 11 | 1022.1 |
| 20260509210058 | 79 | 0 | 2.0 | 6.0 | 0.00 | 0.00 | 0.00 | 10 | 1022.1 |
| 20260509204550 | 80 | 160 | 1.0 | 4.0 | 0.00 | 0.00 | 0.00 | 10 | 1022.2 |
| 20260509203048 | 79 | 103 | 0.0 | 6.0 | 0.00 | 0.00 | 0.00 | 11 | 1022.2 |
| 20260509201549 | 79 | 332 | 0.0 | 4.0 | 0.00 | 0.00 | 0.00 | 12 | 1022.3 |
| 20260509200046 | 79 | 130 | 1.0 | 5.0 | 0.00 | 0.00 | 0.00 | 13 | 1022.3 |
| 20260509194548 | 79 | 216 | 1.0 | 3.0 | 0.00 | 0.00 | 0.00 | 13 | 1022.3 |
| 20260509193052 | 79 | 218 | 1.0 | 5.0 | 0.00 | 0.00 | 0.00 | 12 | 1022.3 |
| 20260509191550 | 80 | 109 | 1.0 | 4.0 | 0.00 | 0.00 | 0.00 | 11 | 1022.4 |
| 20260509190046 | 79 | 0 | 0.0 | 4.0 | 0.00 | 0.00 | 0.00 | 13 | 1022.4 |
| 20260509184554 | 79 | 325 | 0.0 | 4.0 | 0.00 | 0.00 | 0.00 | 11 | 1022.3 |
| 20260509183048 | 77 | 321 | 1.0 | 5.0 | 0.00 | 0.00 | 0.00 | 12 | 1022.4 |
| 20260509181557 | 76 | 229 | 1.0 | 4.0 | 0.00 | 0.00 | 0.00 | 12 | 1022.4 |
| 20260509180051 | 76 | 246 | 0.0 | 3.0 | 0.00 | 0.00 | 0.00 | 12 | 1022.3 |
| 20260509174546 | 75 | 245 | 1.0 | 5.0 | 0.00 | 0.00 | 0.00 | 11 | 1022.3 |
| 20260509173050 | 76 | 326 | 1.0 | 4.0 | 0.00 | 0.00 | 0.00 | 10 | 1022.3 |
| 20260509171555 | 75 | 274 | 0.0 | 3.0 | 0.00 | 0.00 | 0.00 | 13 | 1022.3 |
| 20260509170052 | 74 | 349 | 1.0 | 5.0 | 0.00 | 0.00 | 0.00 | 12 | 1022.3 |
| 20260509164551 | 74 | 0 | 1.0 | 3.0 | 0.00 | 0.00 | 0.00 | 13 | 1022.2 |
| 20260509163050 | 72 | 0 | 0.0 | 3.0 | 0.00 | 0.00 | 0.00 | 19 | 1022.1 |
| 20260509161548 | 70 | 0 | 0.0 | 2.0 | 0.00 | 0.00 | 0.00 | 22 | 1022.1 |
| 20260509160049 | 67 | 58 | 0.0 | 1.0 | 0.00 | 0.00 | 0.00 | 27 | 1022.2 |
| 20260509154548 | 63 | 0 | 0.0 | 1.0 | 0.00 | 0.00 | 0.00 | 40 | 1022.1 |
| 20260509153102 | 58 | 0 | 0.0 | 0.0 | 0.00 | 0.00 | 0.00 | 42 | 1022.3 |
| 20260509151554 | 52 | 0 | 0.0 | 0.0 | 0.00 | 0.00 | 0.00 | 51 | 1022.4 |
| 20260509150053 | 46 | 0 | 0.0 | 1.0 | 0.00 | 0.00 | 0.00 | 59 | 1022.3 |
| 20260509144557 | 41 | 0 | 0.0 | 1.0 | 0.00 | 0.00 | 0.00 | 62 | 1022.5 |
| 20260509143054 | 39 | 0 | 0.0 | 0.0 | 0.00 | 0.00 | 0.00 | 62 | 1022.5 |
| 20260509141548 | 37 | 0 | 0.0 | 0.0 | 0.00 | 0.00 | 0.00 | 61 | 1022.3 |
| 20260509140052 | 36 | 0 | 0.0 | 0.0 | 0.00 | 0.00 | 0.00 | 61 | 1022.2 |
| 20260509134545 | 36 | 0 | 0.0 | 0.0 | 0.00 | 0.00 | 0.00 | 60 | 1022.1 |
| 20260509133046 | 35 | 0 | 0.0 | 1.0 | 0.00 | 0.00 | 0.00 | 59 | 1022.0 |
| 20260509131548 | 35 | 0 | 0.0 | 0.0 | 0.00 | 0.00 | 0.00 | 57 | 1021.8 |
| 20260509130050 | 35 | 0 | 0.0 | 1.0 | 0.00 | 0.00 | 0.00 | 58 | 1021.8 |
| 20260509124548 | 35 | 0 | 0.0 | 1.0 | 0.00 | 0.00 | 0.00 | 57 | 1021.8 |
| 20260509123047 | 36 | 0 | 0.0 | 1.0 | 0.00 | 0.00 | 0.00 | 57 | 1021.7 |
| 20260509121601 | 36 | 0 | 0.0 | 1.0 | 0.00 | 0.00 | 0.00 | 57 | 1021.7 |
| 20260509120106 | 36 | 0 | 0.0 | 1.0 | 0.00 | 0.00 | 0.00 | 56 | 1021.7 |
| 20260509114547 | 36 | 112 | 0.0 | 1.0 | 0.00 | 0.00 | 0.00 | 55 | 1021.8 |
| 20260509113055 | 36 | 0 | 0.0 | 1.0 | 0.00 | 0.00 | 0.00 | 53 | 1021.8 |
| 20260509111548 | 36 | 0 | 0.0 | 0.0 | 0.00 | 0.00 | 0.00 | 52 | 1021.9 |
| 20260509110057 | 36 | 0 | 0.0 | 0.0 | 0.00 | 0.00 | 0.00 | 51 | 1021.9 |
| 20260509104553 | 37 | 0 | 0.0 | 0.0 | 0.00 | 0.00 | 0.00 | 50 | 1022.0 |
| 20260509103056 | 37 | 0 | 0.0 | 1.0 | 0.00 | 0.00 | 0.00 | 49 | 1022.1 |
| 20260509101554 | 37 | 0 | 0.0 | 1.0 | 0.00 | 0.00 | 0.00 | 48 | 1022.1 |
| 20260509100052 | 37 | 0 | 0.0 | 1.0 | 0.00 | 0.00 | 0.00 | 47 | 1021.9 |